******** Week 367 almanac for PRN-1 ******** ID: 1 Health: 0 Eccentricity: 0.001705646515 Time of Applicability(s): 233472 Orbital Inclination(rad): 0.9575359747 Rate of Right Ascen(r/s): -8.217485148e-09 SQRT(A) (m 1/2): 5153.56543 Right Ascen at Week(rad): 2.259331244 Argument of Perigee(rad): 0.1664462782 Mean Anom(rad): 2.318967744 Af0(s): 0.0002313780151 Af1(s/s): -7.275958e-12 week: 367 ******** Week 367 almanac for PRN-2 ******** ID: 2 Health: 0 Eccentricity: 0.01682329178 Time of Applicability(s): 233472 Orbital Inclination(rad): 0.9626053018 Rate of Right Ascen(r/s): -8.091765626e-09 SQRT(A) (m 1/2): 5153.71582 Right Ascen at Week(rad): 2.096962599 Argument of Perigee(rad): -0.7797947896 Mean Anom(rad): -2.455367323 Af0(s): 6.556966553e-05 Af1(s/s): 7.275958e-12 week: 367 ******** Week 367 almanac for PRN-3 ******** ID: 3 Health: 0 Eccentricity: 0.006721496582 Time of Applicability(s): 233472 Orbital Inclination(rad): 0.9942616319 Rate of Right Ascen(r/s): -7.657461821e-09 SQRT(A) (m 1/2): 5153.562988 Right Ascen at Week(rad): -3.035229288 Argument of Perigee(rad): 1.209986145 Mean Anom(rad): 0.2600280945 Af0(s): 0.0003911569702 Af1(s/s): -1.455192e-11 week: 367 ******** Week 367 almanac for PRN-4 ******** ID: 4 Health: 0 Eccentricity: 0.003713130951 Time of Applicability(s): 233472 Orbital Inclination(rad): 0.9709343381 Rate of Right Ascen(r/s): -7.623174678e-09 SQRT(A) (m 1/2): 5153.666504 Right Ascen at Week(rad): -1.965944685 Argument of Perigee(rad): -2.872592496 Mean Anom(rad): -3.073743591 Af0(s): 4.295943603e-05 Af1(s/s): 0 week: 367 ******** Week 367 almanac for PRN-5 ******** ID: 5 Health: 0 Eccentricity: 0.005506515503 Time of Applicability(s): 233472 Orbital Inclination(rad): 0.9807434262 Rate of Right Ascen(r/s): -7.817468486e-09 SQRT(A) (m 1/2): 5153.689453 Right Ascen at Week(rad): -3.095595702 Argument of Perigee(rad): 1.422117786 Mean Anom(rad): -2.411035428 Af0(s): -0.0001831428589 Af1(s/s): 0 week: 367 ******** Week 367 almanac for PRN-6 ******** ID: 6 Health: 0 Eccentricity: 0.003773212433 Time of Applicability(s): 233472 Orbital Inclination(rad): 0.9863340671 Rate of Right Ascen(r/s): -7.931758961e-09 SQRT(A) (m 1/2): 5153.621094 Right Ascen at Week(rad): 2.211244167 Argument of Perigee(rad): -0.5325186594 Mean Anom(rad): 1.541093801 Af0(s): -0.0004815978882 Af1(s/s): 3.637979e-12 week: 367 ******** Week 367 almanac for PRN-7 ******** ID: 7 Health: 0 Eccentricity: 0.0207695961 Time of Applicability(s): 233472 Orbital Inclination(rad): 0.9507708797 Rate of Right Ascen(r/s): -7.920329913e-09 SQRT(A) (m 1/2): 5153.54541 Right Ascen at Week(rad): -0.9572987623 Argument of Perigee(rad): -1.975548918 Mean Anom(rad): 0.710816587 Af0(s): -0.0001386760742 Af1(s/s): -3.637979e-12 week: 367 ******** Week 367 almanac for PRN-8 ******** ID: 8 Health: 0 Eccentricity: 0.01159524918 Time of Applicability(s): 233472 Orbital Inclination(rad): 0.9428912518 Rate of Right Ascen(r/s): -7.954617056e-09 SQRT(A) (m 1/2): 5153.659668 Right Ascen at Week(rad): 1.088415546 Argument of Perigee(rad): 0.5388264813 Mean Anom(rad): -2.770735572 Af0(s): 0.0003617636719 Af1(s/s): -7.275958e-12 week: 367 ******** Week 367 almanac for PRN-9 ******** ID: 9 Health: 0 Eccentricity: 0.003365516663 Time of Applicability(s): 233472 Orbital Inclination(rad): 0.9651879023 Rate of Right Ascen(r/s): -7.680319916e-09 SQRT(A) (m 1/2): 5153.703125 Right Ascen at Week(rad): -2.03053404 Argument of Perigee(rad): 2.045509827 Mean Anom(rad): -2.165087674 Af0(s): 0.0005991710815 Af1(s/s): -3.637979e-12 week: 367 ******** Week 367 almanac for PRN-10 ******** ID: 10 Health: 0 Eccentricity: 0.01093816757 Time of Applicability(s): 233472 Orbital Inclination(rad): 0.9937762708 Rate of Right Ascen(r/s): -7.668890868e-09 SQRT(A) (m 1/2): 5153.611328 Right Ascen at Week(rad): -3.037736987 Argument of Perigee(rad): -2.256987954 Mean Anom(rad): -0.7342884405 Af0(s): -0.0004650170532 Af1(s/s): 0 week: 367 ******** Week 367 almanac for PRN-11 ******** ID: 11 Health: 0 Eccentricity: 0.002237796783 Time of Applicability(s): 233472 Orbital Inclination(rad): 0.9632224894 Rate of Right Ascen(r/s): -8.160339911e-09 SQRT(A) (m 1/2): 5153.549805 Right Ascen at Week(rad): 2.228937003 Argument of Perigee(rad): -2.332041784 Mean Anom(rad): 2.714084643 Af0(s): -0.0002886572632 Af1(s/s): 1.091394e-11 week: 367 ******** Week 367 almanac for PRN-12 ******** ID: 12 Health: 0 Eccentricity: 0.008881092071 Time of Applicability(s): 233472 Orbital Inclination(rad): 0.9593875374 Rate of Right Ascen(r/s): -7.703178011e-09 SQRT(A) (m 1/2): 5153.692383 Right Ascen at Week(rad): 0.1605912353 Argument of Perigee(rad): 1.57506421 Mean Anom(rad): -0.0001636595714 Af0(s): -0.0004800905395 Af1(s/s): 0 week: 367 ******** Week 367 almanac for PRN-13 ******** ID: 13 Health: 0 Eccentricity: 0.01016616821 Time of Applicability(s): 233472 Orbital Inclination(rad): 0.9763991447 Rate of Right Ascen(r/s): -7.600316584e-09 SQRT(A) (m 1/2): 5153.625977 Right Ascen at Week(rad): -1.854761039 Argument of Perigee(rad): 0.9936034737 Mean Anom(rad): -2.993324948 Af0(s): 0.0005366161133 Af1(s/s): 0 week: 367 ******** Week 367 almanac for PRN-14 ******** ID: 14 Health: 0 Eccentricity: 0.006999969482 Time of Applicability(s): 233472 Orbital Inclination(rad): 0.9427114885 Rate of Right Ascen(r/s): -7.908900866e-09 SQRT(A) (m 1/2): 5153.599121 Right Ascen at Week(rad): 0.1051937812 Argument of Perigee(rad): -2.724094841 Mean Anom(rad): -0.1304595234 Af0(s): 0.0005878659668 Af1(s/s): 0 week: 367 ******** Week 367 almanac for PRN-15 ******** ID: 15 Health: 0 Eccentricity: 0.01668548584 Time of Applicability(s): 233472 Orbital Inclination(rad): 0.9432507786 Rate of Right Ascen(r/s): -7.931758961e-09 SQRT(A) (m 1/2): 5153.667969 Right Ascen at Week(rad): -2.175789587 Argument of Perigee(rad): 1.510111583 Mean Anom(rad): 2.518837651 Af0(s): 0.0003203115845 Af1(s/s): 3.637979e-12 week: 367 ******** Week 367 almanac for PRN-16 ******** ID: 16 Health: 0 Eccentricity: 0.01499938965 Time of Applicability(s): 233472 Orbital Inclination(rad): 0.9584947127 Rate of Right Ascen(r/s): -7.748894201e-09 SQRT(A) (m 1/2): 5153.617676 Right Ascen at Week(rad): 0.1774773828 Argument of Perigee(rad): 0.9330835124 Mean Anom(rad): -1.721676221 Af0(s): 0.0001967089966 Af1(s/s): 7.275958e-12 week: 367 ******** Week 367 almanac for PRN-17 ******** ID: 17 Health: 0 Eccentricity: 0.01258325577 Time of Applicability(s): 233472 Orbital Inclination(rad): 0.9584707442 Rate of Right Ascen(r/s): -7.817468486e-09 SQRT(A) (m 1/2): 5153.576172 Right Ascen at Week(rad): 1.193906311 Argument of Perigee(rad): -1.113376064 Mean Anom(rad): -2.803231921 Af0(s): -9.345561523e-05 Af1(s/s): -7.275958e-12 week: 367 ******** Week 367 almanac for PRN-18 ******** ID: 18 Health: 0 Eccentricity: 0.005880355835 Time of Applicability(s): 233472 Orbital Inclination(rad): 0.9712938649 Rate of Right Ascen(r/s): -8.068907531e-09 SQRT(A) (m 1/2): 5153.583008 Right Ascen at Week(rad): 2.205498106 Argument of Perigee(rad): -2.871803409 Mean Anom(rad): 1.497407556 Af0(s): -0.0002931793091 Af1(s/s): 1.091394e-11 week: 367 ******** Week 367 almanac for PRN-19 ******** ID: 19 Health: 0 Eccentricity: 0.01138114929 Time of Applicability(s): 233472 Orbital Inclination(rad): 0.9576138721 Rate of Right Ascen(r/s): -7.840326581e-09 SQRT(A) (m 1/2): 5153.6875 Right Ascen at Week(rad): 1.23777157 Argument of Perigee(rad): 2.956342004 Mean Anom(rad): -1.047350101 Af0(s): 0.0005516895996 Af1(s/s): 0 week: 367 ******** Week 367 almanac for PRN-20 ******** ID: 20 Health: 0 Eccentricity: 0.00212097168 Time of Applicability(s): 233472 Orbital Inclination(rad): 0.9605799678 Rate of Right Ascen(r/s): -7.760323248e-09 SQRT(A) (m 1/2): 5153.550293 Right Ascen at Week(rad): -2.025174844 Argument of Perigee(rad): -1.890004397 Mean Anom(rad): -0.106570469 Af0(s): 9.420928955e-05 Af1(s/s): 1.818989e-11 week: 367 ******** Week 367 almanac for PRN-21 ******** ID: 21 Health: 0 Eccentricity: 0.0008535385132 Time of Applicability(s): 233472 Orbital Inclination(rad): 0.9636539215 Rate of Right Ascen(r/s): -7.966046103e-09 SQRT(A) (m 1/2): 5153.74707 Right Ascen at Week(rad): -3.030482037 Argument of Perigee(rad): -0.1752168583 Mean Anom(rad): -0.4377739988 Af0(s): 0.0003278483276 Af1(s/s): 0 week: 367 ******** Week 367 almanac for PRN-22 ******** ID: 22 Health: 0 Eccentricity: 0.01199674606 Time of Applicability(s): 233472 Orbital Inclination(rad): 0.9579494304 Rate of Right Ascen(r/s): -7.748894201e-09 SQRT(A) (m 1/2): 5153.567383 Right Ascen at Week(rad): 0.1808382088 Argument of Perigee(rad): -0.9931784082 Mean Anom(rad): -2.15452358 Af0(s): -1.205878906e-05 Af1(s/s): 7.275958e-12 week: 367 ******** Week 367 almanac for PRN-23 ******** ID: 23 Health: 0 Eccentricity: 0.006121635437 Time of Applicability(s): 233472 Orbital Inclination(rad): 0.9887488884 Rate of Right Ascen(r/s): -7.726036106e-09 SQRT(A) (m 1/2): 5153.670898 Right Ascen at Week(rad): -3.070046458 Argument of Perigee(rad): -2.739629018 Mean Anom(rad): 0.3288381434 Af0(s): 0.000504961792 Af1(s/s): 3.637979e-12 week: 367 ******** Week 367 almanac for PRN-24 ******** ID: 24 Health: 0 Eccentricity: 0.01801300049 Time of Applicability(s): 233472 Orbital Inclination(rad): 0.9347599552 Rate of Right Ascen(r/s): -8.091765626e-09 SQRT(A) (m 1/2): 5153.577148 Right Ascen at Week(rad): -1.066723724 Argument of Perigee(rad): 1.142028848 Mean Anom(rad): 1.69304778 Af0(s): -2.034920654e-05 Af1(s/s): 1.818989e-11 week: 367 ******** Week 367 almanac for PRN-25 ******** ID: 25 Health: 0 Eccentricity: 0.01287317276 Time of Applicability(s): 233472 Orbital Inclination(rad): 0.9477448629 Rate of Right Ascen(r/s): -7.863184676e-09 SQRT(A) (m 1/2): 5153.646484 Right Ascen at Week(rad): 0.06625628544 Argument of Perigee(rad): 1.16030217 Mean Anom(rad): -0.1056828874 Af0(s): 0.0003383997681 Af1(s/s): -3.637979e-12 week: 367 ******** Week 367 almanac for PRN-26 ******** ID: 26 Health: 0 Eccentricity: 0.01103115082 Time of Applicability(s): 233472 Orbital Inclination(rad): 0.9284922056 Rate of Right Ascen(r/s): -8.103194673e-09 SQRT(A) (m 1/2): 5153.680176 Right Ascen at Week(rad): -0.009161939944 Argument of Perigee(rad): 0.7128812443 Mean Anom(rad): -0.931228579 Af0(s): -0.0002818741943 Af1(s/s): -3.637979e-12 week: 367 ******** Week 367 almanac for PRN-27 ******** ID: 27 Health: 0 Eccentricity: 0.01436710358 Time of Applicability(s): 233472 Orbital Inclination(rad): 0.9519693022 Rate of Right Ascen(r/s): -7.874613723e-09 SQRT(A) (m 1/2): 5153.623047 Right Ascen at Week(rad): 1.120881185 Argument of Perigee(rad): 0.8952538084 Mean Anom(rad): -2.659168056 Af0(s): -9.270194092e-05 Af1(s/s): -1.818989e-11 week: 367 ******** Week 367 almanac for PRN-28 ******** ID: 28 Health: 0 Eccentricity: 0.0004224777222 Time of Applicability(s): 233472 Orbital Inclination(rad): 0.9616825165 Rate of Right Ascen(r/s): -7.828897533e-09 SQRT(A) (m 1/2): 5153.510742 Right Ascen at Week(rad): -0.9824877305 Argument of Perigee(rad): -0.394706065 Mean Anom(rad): 1.431256132 Af0(s): -0.0004341164062 Af1(s/s): 1.091394e-11 week: 367 ******** Week 367 almanac for PRN-29 ******** ID: 29 Health: 0 Eccentricity: 0.003528594971 Time of Applicability(s): 233472 Orbital Inclination(rad): 0.96112525 Rate of Right Ascen(r/s): -7.828897533e-09 SQRT(A) (m 1/2): 5153.687988 Right Ascen at Week(rad): 1.210777103 Argument of Perigee(rad): 2.763963736 Mean Anom(rad): -2.832421374 Af0(s): -0.0002652933594 Af1(s/s): 7.275958e-12 week: 367 ******** Week 367 almanac for PRN-30 ******** ID: 30 Health: 0 Eccentricity: 0.00821018219 Time of Applicability(s): 233472 Orbital Inclination(rad): 0.9360482594 Rate of Right Ascen(r/s): -8.103194673e-09 SQRT(A) (m 1/2): 5153.665527 Right Ascen at Week(rad): -0.9670273314 Argument of Perigee(rad): -2.285309673 Mean Anom(rad): 0.4794480174 Af0(s): 0.0001545032349 Af1(s/s): 1.455192e-11 week: 367 ******** Week 367 almanac for PRN-31 ******** ID: 31 Health: 0 Eccentricity: 0.0108127594 Time of Applicability(s): 233472 Orbital Inclination(rad): 0.9545339263 Rate of Right Ascen(r/s): -7.897471818e-09 SQRT(A) (m 1/2): 5153.528809 Right Ascen at Week(rad): -0.9328561866 Argument of Perigee(rad): 0.9448699976 Mean Anom(rad): -0.367212006 Af0(s): -0.0001213415649 Af1(s/s): 3.637979e-12 week: 367 ******** Week 367 almanac for PRN-32 ******** ID: 32 Health: 0 Eccentricity: 0.00937795639 Time of Applicability(s): 233472 Orbital Inclination(rad): 0.9681959427 Rate of Right Ascen(r/s): -7.623174678e-09 SQRT(A) (m 1/2): 5153.707031 Right Ascen at Week(rad): -2.013362893 Argument of Perigee(rad): -1.980104422 Mean Anom(rad): -2.114600756 Af0(s): 1.130511475e-05 Af1(s/s): 1.818989e-11 week: 367